Location: Morlupo
(42.1333°N, 12.5000°E)
Time: 16:15:01
(UTC+00:00)

Cosmos 1743 - Pass Details

Date: 18 September 2020
Orbit: 510 x 527 km, 82.6° (Epoch: 20 October)

Event Time Altitude Azimuth Distance (km) Brightness Sun altitude
Rises 17:39:59 0° 197° (SSW) 2,635 6.4 -5.7°
Reaches altitude 10° 17:42:08 10° 202° (SSW) 1,749 5.6 -6.1°
Maximum altitude 17:45:54 54° 280° (W) 638 3.7 -6.8°
Drops below altitude 10° 17:49:40 10° 359° (N) 1,753 5.5 -7.5°
Sets 17:51:51 0° 4° (N) 2,642 6.4 -7.9°
